Volver al catálogo

COSMOS 1275 DEB

ActivoPO
NORAD 12747·DEBRIS·🇷🇺 Russia

Lanzado Jun 4, 1981 desde Plesetsk Cosmodrome

Loading…

Próximos Pases (próximas 24 horas)

TLE

ActualizadoSource: Space-Track

Época: Sep 14, 2026, 10:18 UTC

1 12747U 81053CQ  26257.42925387  .00000403  00000-0  46595-3 0  9999
2 12747  83.0643  58.3566 0126921 176.6638 212.0999 13.63377171231184

Sigue COSMOS 1275 DEB en tiempo real con AllMySat

Download on the App Store